{"data":{"norad_id":57200,"intl_designator":"2023-091AL","name":"2023-091AL","alt_names":[],"object_type":"PAYLOAD","status":"ACTIVE","operator":null,"country":"CIS","launch_date":"2023-06-27","launch_site_code":"VOSTO","launch_vehicle":null,"mission":null,"orbit_class":"UNKNOWN","rcs_meters":null,"size_class":null,"mass_kg":null,"dimensions":null,"purposes":[],"wikipedia_slug":null,"has_3d_model":false,"image_url":null,"decayed_at":null,"tle_current":{"epoch":"2026-05-25T04:18:29.316672Z","epoch_age_seconds":56781,"freshness":"FRESH","line1":"1 57200U 23091AL  26145.17950598  .00028390  00000+0  61648-3 0  9990","line2":"2 57200  97.5063 218.7593 0007623 134.1144 226.0732 15.44302849161456","mean_motion":15.44302849,"eccentricity":0.0007623,"inclination_deg":97.5063,"raan_deg":218.7593,"arg_perigee_deg":134.1144,"mean_anomaly_deg":226.0732,"bstar":0.00061648,"rev_number":16145,"period_min":93.245958908414,"perigee_km":428.23482749819,"apogee_km":438.61973840397,"semimajor_km":6811.5642829511,"source":"CELESTRAK","updated_at":"2026-05-25T13:37:59.916706Z"}}}